CW3330 Weather Reports


time (UTC)temp
C
wind
direction
speed
KPH
gust
KPH
rain 1hr
cm
rain 24hr
cm
rain mn
cm
humidity
%
barometer
mb
20260903004345 15 200 6.4 11.3 0.00 0.10 0.00 93 1015.0
20260903003331 16 194 4.8 12.9 0.00 0.10 0.00 93 1015.1
20260903002803 16 177 6.4 16.1 0.00 0.10 0.00 93 1015.1
20260903001821 16 186 4.8 12.9 0.00 0.10 0.00 93 1015.3
20260903000330 15 180 6.4 14.5 0.00 0.10 0.00 93 1015.4
20260902235333 15 202 6.4 12.9 0.00 0.10 0.00 93 1015.3
20260902234332 16 197 3.2 11.3 0.00 0.10 0.00 93 1015.5
20260902233824 16 207 6.4 16.1 0.00 0.10 0.00 93 1015.5
20260902232331 16 206 4.8 14.5 0.00 0.10 0.00 93 1015.7
20260902231330 16 197 4.8 11.3 0.00 0.10 0.00 93 1015.8
20260902230330 16 212 4.8 12.9 0.00 0.10 0.00 93 1015.8
20260902225329 16 205 4.8 11.3 0.00 0.10 0.00 93 1015.8
20260902224330 16 204 4.8 12.9 0.00 0.13 0.00 93 1015.8
20260902223330 16 199 4.8 12.9 0.00 0.13 0.00 94 1015.9
20260902222803 16 193 6.4 16.1 0.00 0.13 0.00 94 1016.0
20260902221331 16 193 6.4 11.3 0.00 0.13 0.00 94 1016.1
20260902220330 16 210 6.4 12.9 0.00 0.13 0.00 94 1016.1
20260902215330 16 194 4.8 11.3 0.00 0.13 0.13 94 1016.2
20260902214331 16 195 4.8 11.3 0.00 0.13 0.13 93 1016.2
20260902213330 16 200 4.8 6.4 0.00 0.13 0.13 93 1016.2
20260902212331 16 200 4.8 8.0 0.00 0.13 0.13 93 1016.3
20260902211337 16 200 3.2 4.8 0.00 0.13 0.13 93 1016.3
20260902210330 16 199 1.6 4.8 0.00 0.13 0.13 92 1016.3
20260902205816 16 197 1.6 8.0 0.00 0.13 0.13 92 1016.3
20260902204331 16 215 0.0 4.8 0.00 0.13 0.13 92 1016.4
20260902203331 16 215 4.8 8.0 0.00 0.13 0.13 91 1016.5
20260902202332 16 222 3.2 8.0 0.00 0.13 0.13 91 1016.3
20260902201332 16 286 3.2 4.8 0.00 0.13 0.13 91 1016.5
20260902200331 16 294 0.0 0.0 0.00 0.13 0.13 91 1016.5
20260902195334 16 294 0.0 4.8 0.00 0.18 0.13 91 1016.6
20260902194331 16 294 1.6 6.4 0.00 0.23 0.13 90 1016.6
20260902193329 16 228 3.2 4.8 0.00 0.23 0.13 90 1016.6
20260902192329 16 228 3.2 6.4 0.00 0.25 0.13 89 1016.6
20260902191332 16 232 1.6 4.8 0.00 0.25 0.13 89 1016.6
20260902190332 16 232 3.2 4.8 0.00 0.25 0.13 89 1016.7
20260902185331 16 232 3.2 4.8 0.00 0.25 0.13 87 1016.6
20260902184332 16 232 1.6 4.8 0.00 0.41 0.13 86 1016.6
20260902183329 16 232 3.2 6.4 0.00 0.41 0.13 85 1016.4
20260902182803 17 232 3.2 6.4 0.00 0.41 0.13 84 1016.5
20260902181331 17 234 3.2 11.3 0.00 0.41 0.13 83 1016.4
20260902180332 17 242 3.2 12.9 0.00 0.41 0.13 82 1016.4
20260902175329 17 277 4.8 16.1 0.00 0.41 0.13 82 1016.3
20260902174330 18 254 6.4 12.9 0.00 0.41 0.13 82 1016.3
20260902173814 18 252 4.8 12.9 0.00 0.41 0.13 82 1016.2
20260902172329 18 279 4.8 17.7 0.00 0.41 0.13 81 1016.2
20260902171328 18 229 3.2 16.1 0.00 0.41 0.13 81 1016.2
20260902170327 18 236 6.4 17.7 0.00 0.41 0.13 80 1016.3
20260902165323 18 208 9.7 17.7 0.00 0.41 0.13 79 1016.2
20260902164318 19 209 6.4 16.1 0.00 0.41 0.13 77 1016.1
20260902163754 19 265 9.7 19.3 0.00 0.41 0.13 75 1016.2
20260902162311 19 275 11.3 29.0 0.00 0.41 0.13 74 1016.3
20260902161308 20 274 9.7 25.7 0.00 0.41 0.13 73 1016.3
20260902160744 20 242 14.5 20.9 0.00 0.41 0.13 71 1016.4
20260902155307 20 283 9.7 20.9 0.00 0.41 0.13 71 1016.3
20260902154756 20 263 9.7 17.7 0.00 0.41 0.13 69 1016.3
20260902153304 20 204 11.3 19.3 0.00 0.41 0.13 70 1016.3
20260902152301 20 254 9.7 22.5 0.00 0.41 0.13 71 1016.6
20260902151303 21 236 12.9 22.5 0.00 0.41 0.13 71 1016.4
20260902150302 20 272 11.3 19.3 0.00 0.41 0.13 73 1016.3
20260902145258 20 267 14.5 32.2 0.00 0.41 0.13 69 1016.5
20260902144255 20 271 11.3 25.7 0.00 0.41 0.13 73 1016.4
20260902143252 20 261 11.3 25.7 0.00 0.41 0.13 73 1016.4
20260902142726 20 267 9.7 22.5 0.00 0.41 0.13 76 1016.3
20260902141245 19 272 3.2 14.5 0.00 0.58 0.13 79 1016.4
20260902140241 19 306 4.8 16.1 0.00 0.61 0.13 78 1016.3
20260902135237 20 205 8.0 19.3 0.00 0.61 0.13 73 1016.3
20260902134234 20 194 12.9 27.4 0.00 0.61 0.13 71 1016.4
20260902133235 20 258 6.4 25.7 0.00 0.61 0.13 73 1016.4
20260902132234 20 219 6.4 25.7 0.00 0.66 0.13 71 1016.5
20260902131232 20 157 12.9 25.7 0.00 0.66 0.13 71 1016.6
20260902130244 20 265 9.7 29.0 0.00 0.66 0.13 65 1016.5
20260902125241 20 259 9.7 30.6 0.00 0.66 0.13 71 1016.6
20260902124721 21 295 14.5 33.8 0.00 0.69 0.13 70 1016.5
20260902123234 20 285 12.9 22.5 0.00 0.69 0.13 70 1016.6
20260902122232 20 258 11.3 22.5 0.00 0.69 0.13 76 1016.6
20260902121233 20 274 14.5 22.5 0.00 0.69 0.13 75 1016.6
20260902120231 20 230 11.3 22.5 0.03 0.69 0.13 82 1016.7
20260902115722 19 270 6.4 19.3 0.10 0.61 0.13 82 1016.8
20260902114231 18 252 9.7 25.7 0.10 0.61 0.13 81 1016.7
20260902113231 18 282 9.7 17.7 0.10 0.61 0.13 83 1016.8
20260902112231 18 288 9.7 16.1 0.10 0.61 0.13 81 1016.8
20260902110232 19 307 8.0 25.7 0.08 0.61 0.10 78 1016.9
20260902105232 20 223 11.3 25.7 0.00 0.58 0.03 68 1016.7
20260902104233 20 252 6.4 25.7 0.00 0.58 0.03 74 1016.6
20260902103233 20 204 9.7 25.7 0.00 0.58 0.03 73 1016.8
20260902102231 20 221 12.9 29.0 0.00 0.58 0.03 75 1016.7
20260902101232 20 232 8.0 20.9 0.00 0.58 0.03 77 1016.8
20260902100231 20 186 9.7 22.5 0.00 0.58 0.03 78 1016.8
20260902095233 19 207 14.5 22.5 0.00 0.58 0.03 78 1016.9
20260902094231 18 247 11.3 19.3 0.00 0.58 0.03 76 1016.9
20260902093231 18 225 12.9 22.5 0.00 0.58 0.03 81 1017.0
20260902092232 17 170 6.4 25.7 0.00 0.58 0.03 83 1017.0
20260902091232 17 248 12.9 22.5 0.00 0.58 0.03 83 1017.0
20260902090243 17 198 8.0 20.9 0.00 0.58 0.03 85 1017.1
20260902085231 16 221 8.0 20.9 0.00 0.58 0.03 86 1017.0
20260902084717 16 188 8.0 20.9 0.00 0.58 0.03 88 1017.1
20260902083236 16 170 6.4 14.5 0.00 0.58 0.03 89 1017.0
20260902082232 15 235 9.7 17.7 0.00 0.58 0.03 88 1017.0
20260902081231 15 199 6.4 17.7 0.00 0.58 0.03 89 1016.9
20260902080235 15 207 8.0 14.5 0.00 0.58 0.03 90 1016.8
20260902075232 15 209 8.0 16.1 0.00 0.58 0.03 90 1016.8
20260902074231 15 215 9.7 17.7 0.00 0.61 0.03 91 1016.8
20260902073233 15 201 6.4 14.5 0.00 0.61 0.03 92 1016.8
20260902072232 15 202 6.4 14.5 0.00 0.61 0.03 92 1016.8
20260902071232 14 198 8.0 14.5 0.00 0.61 0.03 93 1016.9
20260902070231 14 178 6.4 14.5 0.00 0.61 0.03 94 1016.9
20260902065234 14 194 6.4 17.7 0.00 0.61 0.03 94 1017.0
20260902064232 14 189 6.4 14.5 0.00 0.61 0.03 95 1016.9
20260902063234 13 202 8.0 12.9 0.00 0.61 0.03 95 1016.9
20260902061231 13 199 3.2 14.5 0.00 0.61 0.03 95 1016.9
20260902060231 13 194 8.0 12.9 0.00 0.61 0.03 95 1016.9
20260902055233 13 200 4.8 14.5 0.00 0.61 0.03 95 1016.9
20260902054237 13 177 4.8 12.9 0.00 0.61 0.03 95 1016.9
20260902053231 13 205 4.8 12.9 0.00 0.61 0.03 96 1016.9
20260902052232 13 194 6.4 16.1 0.00 0.61 0.03 96 1016.9
20260902051231 13 192 6.4 16.1 0.00 0.61 0.03 96 1016.8
20260902050233 13 190 8.0 12.9 0.00 0.61 0.03 96 1016.8
20260902045706 13 185 4.8 8.0 0.00 0.61 0.03 96 1016.7
20260902044231 13 202 4.8 12.9 0.00 0.61 0.03 96 1016.7
20260902043231 13 196 6.4 11.3 0.00 0.61 0.03 96 1016.7
20260902042232 13 191 4.8 11.3 0.00 0.61 0.03 96 1016.8
20260902041231 13 194 3.2 14.5 0.00 0.61 0.03 96 1016.8
20260902040231 13 204 4.8 12.9 0.00 0.61 0.03 96 1016.8
20260902035233 13 194 4.8 11.3 0.00 0.61 0.03 96 1016.9
20260902034233 13 184 6.4 16.1 0.00 0.61 0.03 96 1017.0
20260902033233 13 179 6.4 12.9 0.00 0.61 0.03 96 1017.1
20260902032724 13 217 4.8 11.3 0.00 0.61 0.03 96 1017.0
20260902031232 13 201 4.8 11.3 0.00 0.61 0.03 96 1017.1
20260902025724 13 202 6.4 16.1 0.00 0.61 0.03 96 1017.1
20260902024233 13 190 8.0 17.7 0.00 0.61 0.03 96 1017.1
20260902023734 13 197 6.4 16.1 0.00 0.61 0.03 96 1017.1
20260902022233 13 171 6.4 12.9 0.00 0.61 0.03 96 1017.1
20260902021231 13 180 4.8 12.9 0.00 0.61 0.03 95 1017.1
20260902020234 13 198 6.4 14.5 0.00 0.61 0.03 95 1017.0
20260902015232 13 197 6.4 12.9 0.00 0.61 0.03 95 1016.9
20260902014231 13 192 6.4 12.9 0.00 0.61 0.03 95 1017.1
20260902013231 13 203 4.8 11.3 0.00 0.61 0.03 95 1017.0
20260902012232 13 213 4.8 11.3 0.00 0.61 0.03 95 1017.0
20260902011231 13 192 4.8 12.9 0.00 0.61 0.03 96 1017.0
20260902005232 13 198 4.8 11.3 0.00 0.61 0.03 96 1016.9